Location: Suburban Lights Observatory
(43.1572°N, 89.2764°W)
Time: 11:41:51
(UTC-06:00)

Daily predictions for brighter satellites

Satellite Brightness Start Highest point End
(mag) Time Altitude Azimuth Time Altitude Azimuth Time Altitude Azimuth
MOS 1-B Rocket 3.9 17:57:37 10° SSE 18:03:47 74° ENE 18:09:26 10° N
BREEZE-M R/B 3.3 18:05:42 10° NW 18:07:49 47° NNE 18:12:38 10° ESE
CZ-4 R/B 3.0 18:09:14 10° S 18:13:01 40° W 18:16:46 10° NNW
Cosmos 1378 Rocket 3.7 18:11:14 10° N 18:15:35 54° E 18:19:56 10° SSE
Resurs 01 Rocket 3.5 18:15:52 10° E 18:17:23 12° ENE 18:18:55 10° NE
Tiangong 2 4.0 18:15:53 10° WSW 18:17:40 14° SSW 18:19:25 10° S
Meteor 1-18 Rocket 4.2 18:12:40 10° N 18:18:13 63° ENE 18:23:42 10° SSE
FREGAT/IRIS 3.6 18:16:42 10° SE 18:19:14 26° ENE 18:21:47 10° NNE
EO 1 Del DPAF 3.4 18:15:57 10° NNE 18:19:41 49° E 18:23:22 10° S
Landsat 4 3.6 18:18:20 10° NNE 18:22:05 66° ESE 18:25:49 10° S
Iridium 4 Rocket 3.4 18:17:48 10° N 18:22:25 47° E 18:26:39 10° SSE
Meteor 1-25 Rocket 4.2 18:17:18 10° S 18:22:47 71° E 18:28:21 10° NNE
Cosmos 158 Rocket 3.9 18:19:41 10° SSW 18:24:34 89° WNW 18:29:28 10° NNE
CZ-4C R/B 3.7 18:19:57 10° NNW 18:25:56 30° NE 18:31:56 12° E
SL-8 R/B 4.0 18:22:37 10° WSW 18:27:23 66° NNW 18:31:56 11° ENE
Cosmos 1437 Rocket 3.3 18:24:04 10° SSE 18:27:52 39° E 18:31:43 10° NNE
Cosmos 44 Rocket 3.9 18:23:19 10° NW 18:28:20 64° WSW 18:33:24 10° SSE
Cosmos 1782 Rocket 4.0 18:24:27 10° SSE 18:28:36 40° E 18:32:44 10° NNE
ATLAS 3B R/B 4.5 18:24:25 10° W 18:30:24 28° NW 18:36:13 10° NNE
Cosmos 1633 2.7 18:30:24 10° SSW 18:33:57 78° W 18:37:33 10° N
COSMO-SKYMED 1 3.7 18:33:09 10° N 18:37:21 48° WNW 18:41:30 10° SW
Meteor 1-11 Rocket 4.5 18:33:50 10° SSE 18:38:35 30° E 18:43:27 10° NNE
Okean 3 4.1 18:34:56 10° NNW 18:39:03 58° W 18:43:09 10° S
Cosmos 1943 4.0 18:36:53 10° N 18:41:53 31° NE 18:45:39 16° ESE
Tsikada Rocket 4.2 18:37:27 10° SSE 18:43:36 51° E 18:49:47 10° NNE
Sich 1 Rocket 3.5 18:39:10 10° S 18:43:39 79° E 18:48:08 10° N
Cosmos 1048 Rocket 4.0 18:38:53 10° SSW 18:44:13 90° NW 18:49:31 10° NNE
ALOS 3.8 18:40:59 10° SSW 18:45:21 40° W 18:49:45 10° NNW
USA 186 3.5 18:46:06 17° NE 18:46:06 17° NE 18:47:50 10° NNE
Gbstr 26 Del rocket 3.0 18:42:01 10° SSW 18:45:35 45° SE 18:47:48 21° ENE
Cosmos 1464 Rocket 4.2 18:46:17 10° NNW 18:52:24 73° W 18:58:30 10° S
FengYun 1-2 T 4.2 18:47:55 10° SSE 18:53:25 89° WSW 18:58:57 10° NNW
Cosmos 2251 Rocket 4.4 18:49:21 10° SSE 18:53:31 25° E 18:56:08 17° ENE
Okean 2 Rocket 3.2 18:50:41 10° SSE 18:54:53 47° E 18:59:08 10° NNE
Cosmos 921 Rocket 3.4 18:50:44 10° NNW 18:55:15 71° WSW 18:59:41 10° S
ARGOS Delta rocket 4.1 18:51:34 10° NNE 18:56:08 42° E 19:00:26 10° SSE
Cosmos 2227 Rocket 4.3 18:51:48 10° WSW 18:56:27 26° NW 19:01:07 10° N
SPOT 3 Rocket 4.4 18:52:52 10° S 18:57:57 53° W 19:03:04 10° NNW
ERS-2 2.2 18:55:13 10° SSE 18:58:54 82° WSW 19:02:37 10° NNW
Cosmos 1939 Rocket 3.9 19:01:05 26° ENE 19:01:06 26° ENE 19:04:31 10° NNE
SL-16 R/B 3.7 18:57:27 10° NW 19:02:38 38° WSW 19:07:47 10° S
Cosmos 2151 Rocket 4.2 19:00:36 10° SSE 19:04:34 32° E 19:08:32 10° NNE
SeaSat 1 2.7 19:04:38 22° ESE 19:07:33 49° ENE 19:12:18 10° NNW
H-2A R/B 4.0 19:04:02 10° S 19:07:46 43° W 19:11:30 10° NNW
Cosmos 2297 Rocket 4.4 19:05:25 10° WSW 19:09:54 24° NW 19:14:24 10° N
COSMOS 2455 3.0 19:06:32 10° S 19:12:19 51° ESE 19:17:37 13° NE
Cosmos 1184 Rocket 2.9 19:10:30 10° N 19:13:29 51° ENE 19:13:29 51° ENE
USA 215 3.4 19:11:43 22° ENE 19:15:54 50° SE 19:22:11 10° SSW
SJ-6B 2.8 19:15:33 10° S 19:19:20 76° WSW 19:23:14 10° NNW
Cosmos 2346 Rocket 4.3 19:14:47 10° S 19:20:58 76° E 19:27:07 10° N
Cosmos 1603 3.7 19:16:07 10° NNW 19:21:47 80° WSW 19:27:23 10° SSE
Envisat 2.9 19:23:21 10° SSE 19:28:27 89° WSW 19:33:34 10° NNW
OE (NEXTSAT) 4.3 19:25:36 10° WSW 19:29:10 81° NNW 19:29:17 79° NNE
CZ-2D R/B 3.6 19:28:05 10° S 19:31:57 64° W 19:35:50 10° NNW
Meteor 1-13 Rocket 4.3 19:27:20 10° NNW 19:32:52 77° W 19:38:21 10° S
Cosmos 1975 Rocket 4.3 19:29:35 10° NNW 19:33:48 43° W 19:38:01 10° SSW
Resurs 1-3 3.5 19:33:27 59° ESE 19:33:59 65° ENE 19:38:21 10° N
ATLAS CENTAUR R/B 1.5 19:30:35 10° NNW 19:34:39 57° NE 19:34:39 57° NE
Cosmos 2263 Rocket 2.1 19:29:26 10° S 19:34:52 58° ESE 19:37:36 29° NE
Cosmos 494 Rocket 4.0 19:32:38 10° SSW 19:37:51 80° WNW 19:43:03 10° NNE
Cosmos 1634 Rocket 3.8 19:34:16 10° N 19:40:28 80° E 19:46:38 10° S
Meteor 1-4 Rocket 3.5 19:38:23 10° SSW 19:41:48 47° WNW 19:45:18 10° N
Thor Agena Rocket 3.8 19:40:51 10° N 19:45:53 65° WNW 19:50:52 10° SSW
CENTAUR R/B 4.0 19:43:01 10° WSW 19:48:42 35° NW 19:55:07 10° NNE
USA 267 3.8 19:48:24 38° ENE 19:49:58 44° NNE 19:56:05 10° NW
Cosmos 2142 Rocket 4.4 19:45:13 10° N 19:51:36 84° E 19:55:42 23° S
Resurs 01 Rocket 1.6 19:52:52 73° SSW 19:53:13 79° WSW 19:57:40 10° NNW
CZ-3C R/B 4.4 19:53:47 10° S 19:57:13 17° SSE 19:57:13 17° SSE
Meteor 2-4 Rocket 4.5 19:57:12 10° NNW 20:02:48 52° W 20:08:12 10° SSW
Cosmos 1536 Rocket 4.0 20:00:02 10° NNW 20:03:56 60° WNW 20:03:56 60° WNW
Meteor 1-5 Rocket 4.5 19:59:58 10° SSW 20:05:51 74° W 20:11:52 10° N
H-2A R/B 4.1 20:18:36 18° NNE 20:18:36 18° NNE 20:20:09 10° N
CZ-4C R/B 2.9 20:08:04 10° NW 20:15:19 85° SW 20:17:11 57° SSE
Spot 2 Rocket 3.8 20:17:53 60° WSW 20:18:06 61° WSW 20:23:08 10° NNW
Cosmos 1943 4.2 20:20:44 10° NW 20:26:03 43° WSW 20:27:32 36° SW
SeaSat 1 4.4 20:44:27 23° WSW 20:45:15 24° WSW 20:49:12 10° NW
COSMOS 2455 4.4 20:53:11 10° WSW 20:58:31 31° NW 21:00:54 24° N
USA 215 3.7 20:59:05 56° NW 20:59:05 56° NW 21:05:18 10° WSW
Cosmos 2263 Rocket 4.2 21:14:47 10° WSW 21:19:12 24° NW 21:19:31 23° NW
